STARLINK-33880 (63686 NORAD) Tracking and Keplerian Element Data

This shows tracking and keplerian element data for the satellite.

Feedback or suggestion? Click here.




ElementValue
Catalog63686
NameSTARLINK-33880
Epoch Orbit3673
Epoch Day353.63052024
Epoch Year2025
RAAN123.2373
Inclination42.9998
Eccentricity0.0001487
Argument of Perigee272.9857
Mean Anonmoly87.0824
Mean Motion15.27572138
Decay Rate0.0002089
L11 63686U 25085Y 25353.63052024 .00020890 00000+0 76668-3 0 9993
L22 63686 42.9998 123.2373 0001487 272.9857 87.0824 15.27572138 36732



Live tracking and technical data element details for STARLINK-33880 (NORAD 63686). STARLINK-33880 can be tracked NOW for your location showing map with azimuth and elevation plus other details from your city location.







IsCatalogInMostPopularTable: catalog: 63686, numindb: 1
Update: records affected: 1



GetName: 63686 STARLINK-33880

Hit Count: updated at: Sat, 07 Feb 2026 08:38:31 GMT